Location: Mountain Hill
(32.7232°N, 85.0227°W)
Time: 15:01:21
(UTC+00:00)

Tiangong - Visible Passes

Search period start: 20 January 2026 00:00
Search period end: 30 January 2026 00:00
Orbit: 378 x 393 km, 41.5° (Epoch: 20 January)

Date Brightness Start Highest point End Pass type
(mag) Time Alt. Az. Time Alt. Az. Time Alt. Az.
20 Jan -0.5 11:00:50 27° NNE 11:00:50 27° NNE 11:02:40 10° NE visible
21 Jan -0.4 11:36:39 18° NNW 11:37:24 20° N 11:39:51 10° NE visible
22 Jan 0.8 10:40:06 12° NE 10:40:06 12° NE 10:40:28 10° NE visible
23 Jan 0.0 11:15:39 17° N 11:15:39 17° N 11:17:40 10° NE visible
24 Jan -0.1 11:51:07 11° NW 11:53:13 18° N 11:55:29 10° NE visible
25 Jan 0.4 10:54:17 15° NNE 10:54:17 15° NNE 10:55:26 10° NE visible
26 Jan -0.3 11:29:36 17° NNW 11:30:53 22° NNE 11:33:26 10° ENE visible
27 Jan 0.9 10:32:41 12° NE 10:32:41 12° NE 10:33:11 10° NE visible
27 Jan -1.5 12:05:08 10° NW 12:08:12 47° NNE 12:11:18 10° E visible
28 Jan -0.8 11:07:57 29° N 11:08:18 30° NNE 11:11:08 10° E visible
29 Jan -2.2 11:43:12 19° WNW 11:45:20 90° SSE 11:48:31 10° ESE visible
